Location: Unspecified
(43.4354°N, 0.0000°E)
Time: 10:48:03
(UTC+00:00)

Vanguard 1 Rocket - Pass Details

Date: 23 June 2019
Orbit: 650 x 4226 km, 34.3° (Epoch: 13 October)

Event Time Altitude Azimuth Distance (km) Brightness Sun altitude
Rises 21:15:52 0° 272° (W) 5,609 12.1 -13.0°
Reaches altitude 10° 21:20:45 10° 264° (W) 3,984 11.1 -13.5°
Maximum altitude 21:28:33 30° 208° (SSW) 1,893 8.8 -14.4°
Enters shadow 21:31:42 19° 163° (SSE) 2,037 8.6 -14.7°
